Other Public Products
Issued by NWS Grand Forks, ND

Home | Current Version | Previous Version | Graphics & Text | Print | Product List | Glossary On
Versions: 1 2 3 4 5 6 7 8 9 10 11 12 13 14 15 16 17 18 19 20 21 22 23 24 25 26 27 28 29 30 31 32 33 34 35 36 37 38 39 40 41 42 43 44 45 46 47 48 49 50
000
FPUS83 KFGF 300231
OPUFGF
PRAIRIE TO PINES WEATHER ROUNDUP
NATIONAL WEATHER SERVICE EASTERN NORTH DAKOTA/GRAND FORKS ND
900 PM CDT WED MAR 29 2017

 **SATELLITE DATA USED TO AUGMENT SKY COVER AT AUTOMATED STATIONS**
 *****  WEATHER ACROSS EASTERN NORTH DAKOTA  *****

CITY           SKY/WX    TMP DP  RH WIND       PRES   REMARKS
GRAND FORKS    FAIR      51  42  71 S16       29.99S
GRAND FORKS AF CLOUDY    51  39  63 S21       29.98F
GRAND CITY NWS NOT AVBL
BUXTON         NOT AVBL
DEVILS LAKE    CLOUDY    50  38  63 S12       29.92F
FARGO          FAIR      50  37  61 S22G29    30.05S
WAHPETON ARPT  FAIR      43  34  70 S12       30.10S
$$

 *****  WEATHER ACROSS CENTRAL AND WESTERN NORTH DAKOTA  *****

CITY           SKY/WX    TMP DP  RH WIND       PRES   REMARKS
JAMESTOWN      FAIR      49  36  61 S14       29.96F
BISMARCK       CLOUDY    55  38  52 S12       29.91F
MINOT          FAIR      46  43  89 SE3       29.85F
MINOT AFB      FAIR      45  43  93 S7        29.84F
GARRISON         N/A     47  37  68 CALM      29.85F
WILLISTON      FAIR      50  31  48 W8        29.85S
DICKINSON      FAIR      50  28  42 NW5       29.84F
HETTINGER      CLOUDY    51  38  60 S12       29.90F
$$

 *****  OTHER OBSERVATIONS NORTHEAST NORTH DAKOTA  *****

CITY           SKY/WX    TMP DP  RH WIND       PRES   REMARKS
WALHALLA       NOT AVBL
LANGDON        CLOUDY    45  41  87 S12       29.91F
CAVALIER       FAIR      50  41  71 S15G21    29.93S
GRAFTON        FAIR      48  43  81 S14       29.97S
CANDO          NOT AVBL
FORT TOTTEN      N/A     50  38  62 S10       29.95
ROLLA          LGT RAIN  43  43 100 S10       29.90F
RUGBY          NOT AVBL
 ***** THE ABOVE OBSERVATIONS ARE NON NWS ARE NOT QUALITY
        CONTROLLED AND MAY MIS-REPORT RAIN FOR SNOW...
$$

 *****  OTHER OBSERVATIONS SOUTHEAST NORTH DAKOTA *****

CITY           SKY/WX    TMP DP  RH WIND       PRES   REMARKS
COOPERSTOWN    FAIR      46  36  66 S18       29.98S
VALLEY CITY    FAIR      48  36  61 S12       30.01F
OAKES          NOT AVBL
GWINNER        CLEAR     45  36  70 MISG      30.06R
SHEYENNE NWR     N/A     47  33  57 S14       29.95
BUFFALO        NOT AVBL
WYNDMERE         N/A     45  37  76 S9          N/A
 ***** THE ABOVE OBSERVATIONS ARE NON NWS ARE NOT QUALITY
       CONTROLLED AND MAY MIS-REPORT RAIN FOR SNOW...
$$

  *****  WEATHER ACROSS NORTHERN MINNESOTA  *****

CITY           SKY/WX    TMP DP  RH WIND       PRES   REMARKS
FLAG ISLAND    FAIR      37  30  75 S6        30.02S
WARROAD        FAIR      48  36  61 SE13      30.02F
ROSEAU         FAIR      46  37  71 S8        30.01S
HALLOCK        FAIR      48  43  81 S18       29.96S
THF RVR FALLS    N/A    N/A N/A N/A MISG        N/A
HALSTAD          N/A     46  37  72 S17         N/A
FOSSTON        FAIR      43  30  61 S9        30.07S
BAUDETTE       FAIR      46  31  55 SE9       30.05S
WASKISH        FAIR      45  34  65 SE7       30.09S
CROOKSTON      FAIR      48  37  66 S17       30.03S
$$
  *****  WEATHER ACROSS CENTRAL AND WEST MINNESOTA  *****

CITY           SKY/WX    TMP DP  RH WIND       PRES   REMARKS
BEMIDJI        FAIR      41  31  66 SE8       30.09S
PARK RAPIDS    FAIR      45  31  58 SE9       30.10R
WADENA         FAIR      39  34  81 CALM      30.11S
DETROIT LAKES  FAIR      45  32  61 S8        30.10S
MOORHEAD       FAIR      46  37  71 S17       30.08S
FERGUS FALLS   FAIR      41  36  81 S8        30.13S
ELBOW LAKE     FAIR      38  35  90 S8        30.11F
MORRIS MN      FAIR      39  36  87 SE7       30.10S
STAPLES        FAIR      41  32  70 CALM      30.12R
WHEATON        FAIR      43  36  75 SE9       30.13R
$$
  *****  WEATHER ELSEWHERE ACROSS MINNESOTA  *****

CITY           SKY/WX    TMP DP  RH WIND       PRES   REMARKS
DULUTH         FAIR      32  27  81 E12       30.19S WCI  23
INTRNTL FALLS  FAIR      41  29  62 SE9       30.11R
ELY            FAIR      30  25  80 SE3       30.19S
CLOQUET        CLOUDY    32  28  86 E8        30.18F WCI  25
BRAINERD       FAIR      42  32  67 E5        30.13F
HIBBING        FAIR      34  27  75 SE7       30.17R
ALEXANDRIA     FAIR      42  36  79 S8        30.12S
SAINT CLOUD    FAIR      43  37  79 SE3       30.12F
MINNEAPOLIS    LGT RAIN  44  38  79 E16       30.14F
$$

  *****  WEATHER ACROSS SOUTH DAKOTA  *****

CITY           SKY/WX    TMP DP  RH WIND       PRES   REMARKS
SIOUX FALLS    CLOUDY    40  39  97 E20G25    30.02F
BROOKINGS      CLOUDY    39  36  87 E9        30.05S
WATERTOWN      MOCLDY    41  36  82 SE10      30.06F
HURON          CLOUDY    45  37  73 E10       30.05R
SISSETON         N/A     42  37  82 S9        30.09R
ABERDEEN       FAIR      45  34  65 SE16      30.05R
MITCHELL       CLOUDY    44  37  76 E12       30.05S
PIERRE         FAIR      45  33  63 SE10      29.99S
MOBRIDGE       FAIR      50  32  50 SE12      29.94S
RAPID CITY     FAIR      45  38  76 SE9       29.94S
$$

  *****  SOME WEATHER IN NEARBY STATES *****

CITY           SKY/WX    TMP DP  RH WIND       PRES   REMARKS
GLASGOW MT     FAIR      55  27  34 CALM      29.81F
GREAT FALLS MT FAIR      52  34  50 SW18      29.78R
CHEYENNE WY    FAIR      46  28  49 N6        29.96F
SCOTTSBLUFF NE FAIR      46  38  73 SE9       29.95S
OMAHA NE       DRIZZLE   43  38  82 NE21G29   29.82F
DES MOINES IA  TSTM      44  42  93 E18G29    29.86S FOG
DAVENPORT IA   LGT RAIN  42  40  92 E22G33    29.97F FOG
CHICAGO IL     LGT RAIN  44  38  79 NE13      30.10R
EAU CLAIRE WI  LGT RAIN  41  37  86 E9        30.17F
LA CROSSE WI   LGT RAIN  43  38  82 E14G21    30.15S
$$

  *****  SOME NATIONAL WEATHER *****

CITY           SKY/WX    TMP DP  RH WIND       PRES   REMARKS
LA GUARDIA NY  FAIR      48  24  39 N14G21    30.20R
RALEIGH NC     FAIR      63  51  65 SE3       30.10R
ATLANTA GA     FAIR      76  57  51 S3        29.99R
NEW ORLEANS LA MOCLDY    74  69  85 SE13      29.88S
OKLAHOMA CITY  MOCLDY    50  41  71 W9        29.80R
ALBUQUERQUE NM MOCLDY    56  32  40 E7        30.01R
SALT LAKE CITY MOCLDY    54  34  46 N5        30.09F
LOS ANGELES CA FAIR      66  48  52 W10       30.00R
BOISE ID       LGT RAIN  53  47  79 CALM      30.00S
SEATTLE WA     FAIR      50  43  77 SW15G22   29.94R
$$

*** WEATHER ACROSS MANITOBA...SASKATCHEWAN AND ONTARIO ***
                ***ONTARIO***

CITY           SKY/WX    TMP DP  RH WIND       PRES   REMARKS
GERALDTON      MOCLDY    28  19  69 SE3       30.27F
THUNDER BAY    MOCLDY    30  28  93 E2        30.29S
SIOUX LOOKOUT  MOCLDY    41  25  52 SE7       30.11F
TORONTO        CLOUDY    43  23  45 NE7       30.28F
BIG TROUT LK   CLOUDY    34  21  60 SE10G17   30.15F
PICKLE LAKE    MOCLDY    34  21  60 SE12G17   30.16F
DRYDEN         CLOUDY    43  27  52 S15       30.08F
KENORA         MOCLDY    46  28  49 S13       30.03F
$$
                *** MANITOBA***

CITY           SKY/WX    TMP DP  RH WIND       PRES   REMARKS
BRANDON        PTCLDY    41  39  93 SE7       29.85F
DAUPHIN        CLEAR     37  36  93 N6        29.82F FOG
ISLAND LAKE    LGT RAIN  32  32 100 SE9       30.00F WCI  24
PILOT MOUND      N/A     45  39  81 SW13G18     N/A
THE PAS        DRIZZLE   34  30  86 E7        29.86F
THOMPSON       CLOUDY    37  21  52 E5        29.97F
WINNIPEG       LGT RAIN  48  45  87 W15       29.93R
LYNN LAKE      CLOUDY    36  27  69 SE6       29.92S
CHURCHILL      MOCLDY    14  10  85 SE8       30.13  WCI   3
GILLAM         CLEAR     36  19  51 E6        30.06F
$$
                ***SASKATCHEWAN***

CITY           SKY/WX    TMP DP  RH WIND       PRES   REMARKS
ESTEVAN        PTCLDY    45  34  65 S9        29.81F
KINDERSLEY     MOCLDY    46  32  57 S7        29.73S
LLOYDMINSTER   CLOUDY    34  34 100 E8        29.77S FOG
PRINCE ALBERT  CLOUDY    37  32  81 N5        29.82S
REGINA         MOCLDY    48  28  46 N3        29.78S
YORKTON        CLEAR     41  39  93 SE7       29.77F


USA.gov is the U.S. government's official web portal to all federal, state and local government web resources and services.